Tracking 28794 objects as of 19-Apr-2024
HD Live streaming from Space Station
objects crossing your sky now

STARLINK-2057

Track STARLINK-2057 now!
10-day predictions
STARLINK-2057 is classified as:


NORAD ID: 47666
Int'l Code: 2021-012AY
Perigee: 553.4 km
Apogee: 555.2 km
Inclination: 53.1 °
Period: 95.6 minutes
Semi major axis: 6925 km
RCS: Unknown
Launch date: February 16, 2021
Source: United States (US)
Launch site: AIR FORCE EASTERN TEST RANGE (AFETR)
Your satellite tracking list
Your tracking list is empty




NASA's NSSDC Master Catalog

Two Line Element Set (TLE):
1 47666U 21012AY  24110.40670185  .00003547  00000-0  25686-3 0  9993
2 47666  53.0551 261.2833 0001285  84.0786 276.0349 15.06404307175929
Source of the keplerian elements: AFSPC